Flag for Brazil Weather past 2 weeks in Curitiba, Paraná, Brazil

Now
61 °F

Fog.


Feels Like: 61 °F
Forecast: 59 / 73 °F
Wind: 3 mph from Southeast

Location: Curitiba Aeroporto

Current Time: May 22, 2015 at 8:53:21 AM

Latest Report: May 22, 2015 at 8:00 AM


Visibility: 3 mi

Pressure: 30.33 "Hg

Humidity: 94%

Dew point: 59 °F

Location of CuritibaLocation

Historic Weather in Curitiba — Graph

°F

Curitiba temperature yesterday

Maximum temperature yesterday: 66 °F (at 11:00 AM)
Minimum temperature yesterday: 59 °F (at 12:00 AM)
Average temperature yesterday: 62 °F

Past Weeks' High & Low Weather Summary

 TemperatureHumidityPressure
High72 °F (May 9, 2:00 PM)100% (May 7, 9:00 AM)30.36 "Hg (May 7, 9:00 AM)
Low48 °F (May 9, 3:00 AM)38% (May 9, 4:00 PM)29.95 "Hg (May 11, 5:00 AM)
Average59 °F87%30.23 "Hg
* Reported May 7 7:00 AM — May 22 7:00 AM, Curitiba, Weather by CustomWeather, © 2015

Note: Actual official high and low records may vary slightly from our data, if they occured in-between our weather recording intervals... More about our weather records

Advertising

Curitiba weather history for previous 24 hours

 ConditionsComfort  
Time TempWeatherWind HumidityBarometerVisibility
7:00 AM
Fri, May 22
59 °FFog.2 mph94%30.30 "Hg2 mi
6:00 AM59 °FPartly sunny.3 mph94%30.30 "HgN/A
5:00 AM59 °FPassing clouds.3 mph94%30.27 "HgN/A
4:00 AM59 °FPassing clouds.5 mph94%30.27 "HgN/A
3:00 AM61 °FPassing clouds.3 mph94%30.30 "HgN/A
2:00 AM59 °FPassing clouds.9 mph94%30.30 "HgN/A
1:00 AM59 °FPassing clouds.3 mph100%30.30 "HgN/A
12:00 AM61 °FPassing clouds.5 mph94%30.30 "HgN/A
11:00 PM
Thu, May 21
61 °FPassing clouds.3 mph94%30.33 "HgN/A
10:00 PM61 °FPassing clouds.No wind94%30.30 "HgN/A
9:00 PM59 °FPassing clouds.2 mph94%30.30 "HgN/A
8:00 PM59 °FPassing clouds.2 mph94%30.30 "HgN/A
7:00 PM59 °FPassing clouds.6 mph94%30.27 "HgN/A
6:00 PM61 °FPassing clouds.6 mph88%30.27 "HgN/A
5:00 PM64 °FPassing clouds.8 mph83%30.27 "HgN/A
4:00 PM66 °FPartly sunny.9 mph73%30.27 "HgN/A
3:00 PM66 °FPartly sunny.8 mph73%30.27 "HgN/A
2:00 PM66 °FPartly sunny.7 mph73%30.30 "HgN/A
1:00 PM66 °FPartly sunny.10 mph73%30.30 "HgN/A
12:00 PM66 °FPartly sunny.10 mph73%30.33 "HgN/A
11:00 AM66 °FPartly sunny.9 mph73%30.33 "HgN/A
10:00 AM64 °FPartly sunny.14 mph73%30.36 "HgN/A
9:00 AM63 °FBroken clouds.14 mph83%30.33 "HgN/A
8:00 AM61 °FScattered clouds.10 mph88%30.30 "HgN/A
Weather by CustomWeather, © 2015

See weather overviewHow to use our weather pages